• In Netherlands
  • List of Countries
  • For 7 days
  • Water Temperature
  • Satellite Maps
  • Weather Map
  • Weather Widgets
  • user-avatar
    Login

    Hourly Weather Namyur

    Today, 22 February, Wednesday

    Time Temperature Precipitation Wind Pressure Humidity
    00:00 +9°C° 0.1 mm 8 mps 749 mmHg 92%
    01:00 +9°C° 0.1 mm 8 mps 749 mmHg 92%
    02:00 +9°C° 0.1 mm 8 mps 749 mmHg 91%
    03:00 +9°C° 0.1 mm 8 mps 748 mmHg 91%
    04:00 +9°C° 0.2 mm 8 mps 748 mmHg 91%
    05:00 +7°C° 0.2 mm 8 mps 748 mmHg 92%
    06:00 +7°C° 0.2 mm 8 mps 747 mmHg 92%
    07:00 +7°C° 0.4 mm 9 mps 747 mmHg 92%
    08:00 +7°C° 0.4 mm 9 mps 747 mmHg 92%
    09:00 +7°C° 0.4 mm 9 mps 747 mmHg 92%
    10:00 +8°C° 0.3 mm 9 mps 747 mmHg 92%
    11:00 +8°C° 0.3 mm 9 mps 747 mmHg 91%
    12:00 +8°C° 0.3 mm 9 mps 747 mmHg 91%
    13:00 +8°C° 0.3 mm 9 mps 747 mmHg 91%
    14:00 +8°C° 0.3 mm 9 mps 746 mmHg 91%
    15:00 +8°C° 0.3 mm 9 mps 746 mmHg 91%
    16:00 +8°C° 0.4 mm 9 mps 746 mmHg 91%
    17:00 +8°C° 0.4 mm 9 mps 746 mmHg 92%
    18:00 +8°C° 0.4 mm 9 mps 746 mmHg 92%
    19:00 +8°C° 0.4 mm 9 mps 746 mmHg 92%
    20:00 +8°C° 0.4 mm 9 mps 746 mmHg 92%
    21:00 +8°C° 0.4 mm 9 mps 746 mmHg 93%
    22:00 +8°C° 0.3 mm 9 mps 746 mmHg 93%
    23:00 +9°C° 0.3 mm 8 mps 746 mmHg 92%

    Tomorrow, 23 February, Thursday

    Time Temperature Precipitation Wind Pressure Humidity
    00:00 +9°C° 0.3 mm 8 mps 746 mmHg 92%
    01:00 +7°C° 0.2 mm 8 mps 745 mmHg 92%
    02:00 +7°C° 0.2 mm 9 mps 745 mmHg 92%
    03:00 +7°C° 0.2 mm 9 mps 744 mmHg 92%
    04:00 +7°C° 0.2 mm 9 mps 743 mmHg 92%
    05:00 +6°C° 0.2 mm 9 mps 743 mmHg 92%
    06:00 +6°C° 0.2 mm 9 mps 742 mmHg 92%
    07:00 +6°C° 0.2 mm 10 mps 742 mmHg 91%
    08:00 +6°C° 0.2 mm 10 mps 741 mmHg 90%
    09:00 +6°C° 0.2 mm 10 mps 741 mmHg 89%
    10:00 +6°C° 0.1 mm 11 mps 740 mmHg 88%
    11:00 +7°C° 0.1 mm 12 mps 739 mmHg 87%
    12:00 +7°C° 0.1 mm 12 mps 739 mmHg 86%
    13:00 +7°C° 0.7 mm 12 mps 738 mmHg 84%
    14:00 +7°C° 0.7 mm 12 mps 738 mmHg 82%
    15:00 +7°C° 0.7 mm 12 mps 738 mmHg 80%
    16:00 +6°C° 0.1 mm 11 mps 738 mmHg 80%
    17:00 +4°C° 0.1 mm 11 mps 739 mmHg 80%
    18:00 +5°C° 0.1 mm 10 mps 739 mmHg 81%
    19:00 +3°C° 0 mm 9 mps 740 mmHg 81%
    20:00 +3°C° 0 mm 9 mps 741 mmHg 81%
    21:00 +2°C° 0 mm 8 mps 742 mmHg 81%
    22:00 +2°C° 0.1 mm 8 mps 743 mmHg 82%
    23:00 +3°C° 0.1 mm 7 mps 743 mmHg 84%

    Day after tomorrow, 24 February, Friday

    Time Temperature Precipitation Wind Pressure Humidity
    00:00 +3°C° 0.1 mm 6 mps 744 mmHg 85%
    01:00 +2°C° 0.1 mm 6 mps 745 mmHg 86%
    02:00 +2°C° 0.1 mm 6 mps 745 mmHg 87%
    03:00 +2°C° 0.1 mm 6 mps 745 mmHg 88%
    04:00 +1°C° 0.1 mm 5 mps 746 mmHg 89%
    05:00 +1°C° 0.1 mm 5 mps 746 mmHg 89%
    06:00 +1°C° 0.1 mm 5 mps 747 mmHg 89%
    07:00 +2°C° 0.1 mm 6 mps 747 mmHg 86%
    08:00 +2°C° 0.1 mm 6 mps 748 mmHg 82%
    09:00 +2°C° 0.1 mm 6 mps 748 mmHg 79%
    10:00 +3°C° 0.2 mm 6 mps 749 mmHg 77%
    11:00 +3°C° 0.2 mm 6 mps 749 mmHg 74%
    12:00 +4°C° 0.2 mm 7 mps 750 mmHg 72%
    13:00 +4°C° 0.3 mm 6 mps 750 mmHg 72%
    14:00 +4°C° 0.3 mm 6 mps 750 mmHg 73%
    15:00 +4°C° 0.3 mm 6 mps 750 mmHg 73%
    16:00 +3°C° 0.1 mm 5 mps 751 mmHg 78%
    17:00 +3°C° 0.1 mm 4 mps 751 mmHg 82%
    18:00 +2°C° 0.1 mm 3 mps 752 mmHg 87%
    19:00 +1°C° 0 mm 3 mps 752 mmHg 88%
    20:00 +1°C° 0 mm 3 mps 753 mmHg 89%
    21:00 +1°C° 0 mm 3 mps 753 mmHg 91%
    22:00 0°C° 0 mm 3 mps 754 mmHg 92%
    23:00 0°C° 0 mm 3 mps 754 mmHg 92%

    25 February, Saturday

    Time Temperature Precipitation Wind Pressure Humidity
    00:00 0°C° 0 mm 3 mps 754 mmHg 93%
    01:00 0°C° 0 mm 4 mps 754 mmHg 94%
    02:00 0°C° 0 mm 4 mps 754 mmHg 94%
    03:00 0°C° 0 mm 4 mps 753 mmHg 94%
    04:00 0°C° 0 mm 5 mps 753 mmHg 94%
    05:00 0°C° 0 mm 5 mps 753 mmHg 94%
    06:00 +1°C° 0 mm 5 mps 753 mmHg 95%
    07:00 +1°C° 0.1 mm 6 mps 753 mmHg 92%
    08:00 +2°C° 0.1 mm 7 mps 753 mmHg 90%
    09:00 +3°C° 0.1 mm 7 mps 753 mmHg 88%
    10:00 +4°C° 0 mm 8 mps 753 mmHg 85%
    11:00 +5°C° 0 mm 8 mps 753 mmHg 82%
    12:00 +6°C° 0 mm 8 mps 752 mmHg 79%
    13:00 +7°C° 0 mm 8 mps 752 mmHg 78%
    14:00 +7°C° 0 mm 8 mps 751 mmHg 78%
    15:00 +7°C° 0 mm 8 mps 751 mmHg 78%
    16:00 +7°C° 0 mm 8 mps 751 mmHg 80%
    17:00 +6°C° 0 mm 7 mps 750 mmHg 83%
    18:00 +5°C° 0 mm 7 mps 750 mmHg 85%
    19:00 +5°C° 0 mm 8 mps 750 mmHg 85%
    20:00 +5°C° 0 mm 8 mps 750 mmHg 85%
    21:00 +5°C° 0 mm 8 mps 750 mmHg 85%
    22:00 +5°C° 0 mm 8 mps 750 mmHg 86%
    23:00 +5°C° 0 mm 8 mps 750 mmHg 87%

    26 February, Sunday

    Time Temperature Precipitation Wind Pressure Humidity
    00:00 +5°C° 0 mm 8 mps 750 mmHg 88%
    01:00 +5°C° 0.1 mm 8 mps 750 mmHg 89%
    02:00 +6°C° 0.1 mm 7 mps 750 mmHg 90%
    03:00 +6°C° 0.1 mm 7 mps 750 mmHg 91%
    04:00 +7°C° 0 mm 6 mps 751 mmHg 92%
    05:00 +7°C° 0 mm 6 mps 751 mmHg 93%
    06:00 +7°C° 0 mm 5 mps 751 mmHg 94%
    07:00 +7°C° 0 mm 5 mps 752 mmHg 93%
    08:00 +7°C° 0 mm 5 mps 752 mmHg 91%
    09:00 +7°C° 0 mm 5 mps 753 mmHg 90%
    10:00 +8°C° 0 mm 5 mps 753 mmHg 88%
    11:00 +8°C° 0 mm 5 mps 753 mmHg 86%
    12:00 +8°C° 0 mm 6 mps 753 mmHg 83%
    13:00 +8°C° 0 mm 5 mps 752 mmHg 84%
    14:00 +8°C° 0 mm 5 mps 752 mmHg 84%
    15:00 +8°C° 0 mm 5 mps 752 mmHg 84%
    16:00 +8°C° 0 mm 5 mps 751 mmHg 86%
    17:00 +8°C° 0 mm 5 mps 751 mmHg 88%
    18:00 +8°C° 0 mm 5 mps 751 mmHg 90%
    19:00 +8°C° 0 mm 5 mps 751 mmHg 90%
    20:00 +8°C° 0 mm 5 mps 750 mmHg 91%
    21:00 +8°C° 0 mm 6 mps 750 mmHg 92%
    22:00 +8°C° 0 mm 6 mps 750 mmHg 92%
    23:00 +8°C° 0 mm 6 mps 750 mmHg 92%

    27 February, Monday

    Time Temperature Precipitation Wind Pressure Humidity
    00:00 +8°C° 0 mm 6 mps 749 mmHg 92%
    01:00 +8°C° 0 mm 6 mps 749 mmHg 91%
    02:00 +8°C° 0 mm 6 mps 748 mmHg 91%
    03:00 +8°C° 0 mm 6 mps 748 mmHg 91%
    04:00 +7°C° 0 mm 6 mps 748 mmHg 90%
    05:00 +6°C° 0 mm 7 mps 747 mmHg 90%
    06:00 +6°C° 0 mm 7 mps 747 mmHg 89%
    07:00 +6°C° 0 mm 7 mps 747 mmHg 89%
    08:00 +7°C° 0 mm 8 mps 746 mmHg 88%
    09:00 +7°C° 0 mm 8 mps 746 mmHg 87%
    10:00 +9°C° 0 mm 8 mps 745 mmHg 84%
    11:00 +10°C° 0 mm 8 mps 745 mmHg 81%
    12:00 +11°C° 0 mm 8 mps 744 mmHg 78%
    13:00 +12°C° 0 mm 8 mps 743 mmHg 77%
    14:00 +12°C° 0 mm 8 mps 743 mmHg 75%
    15:00 +12°C° 0 mm 8 mps 742 mmHg 74%
    16:00 +12°C° 0 mm 8 mps 742 mmHg 75%
    17:00 +11°C° 0 mm 7 mps 741 mmHg 77%
    18:00 +10°C° 0 mm 7 mps 741 mmHg 79%
    19:00 +10°C° 0.6 mm 7 mps 741 mmHg 83%
    20:00 +10°C° 0.6 mm 7 mps 742 mmHg 87%
    21:00 +9°C° 0.6 mm 7 mps 742 mmHg 90%
    22:00 +9°C° 0.1 mm 6 mps 742 mmHg 91%
    23:00 +8°C° 0.1 mm 6 mps 742 mmHg 91%
    Show more